[[{"header":{"parameterUnit":"m.s-1","parameterCategory":1,"la1":30.2991,"la2":30.254,"lo1":-89.0895,"lo2":-89.0444,"dy":0.0017,"dx":0.0017,"nx":28,"ny":28,"refTime":"2023-10-30T03:00:00:Z","depth":0,"parameterNumber":2,"parameterNumberName":"U-component_of_WINDS"},"data":[0,0,0,0,0,0,0,0,0,0,0,0,0,0,0,0,0,0,0,0,0,0,0,0,0,0,0,0,0,0,0,0,0,0,0,0,0,0,0,0,0,0,0,0,0,0,0,0,0,0,0,0,0,0,0,0,0,0,1.1095,1.1094,0,1.1058,1.1058,1.1058,1.1046,1.1046,1.1046,1.1047,1.1007,1.1006,1.1004,0,0,0,0,0,0,0,0,0,0,0,0,0,1.1152,1.1151,1.1095,1.1094,1.1094,1.1059,1.1058,1.1058,1.1046,1.1046,1.1046,1.1047,1.1007,1.1006,1.1004,0,0,0,0,0,0,0,0,0,0,0,0,0,1.1123,1.1151,1.1095,1.1084,1.1082,1.1059,1.1058,1.1057,1.1046,1.1046,1.1046,1.1047,1.1008,1.1006,1.1004,1.0988,0,0,1.0999,1.0998,0,0,0,0,0,0,0,0,1.1124,1.1121,1.1086,1.1085,1.1083,1.1057,1.1064,1.1034,1.1046,1.106,1.1047,1.1047,1.1023,1.102,1.1013,1.0986,1.0984,1.0998,1.0997,1.0997,1.0996,0,0,0,0,0,0,0,1.1126,1.1122,1.108,1.1085,1.1084,1.108,1.1076,1.1058,1.104,1.1059,1.1058,1.1054,1.1022,1.1014,1.1012,1.0984,1.0998,1.0997,1.0996,1.0995,1.0943,1.0942,0,0,0,0,0,0,1.1131,1.1124,1.1081,1.1079,1.1105,1.1079,1.1075,1.1065,1.1041,1.1037,1.1053,1.1053,1.1017,1.1014,1.101,1.099,1.0997,1.0995,1.0994,1.0943,1.0943,1.0942,0,0,0,0,0,0,1.1132,1.1127,1.1083,1.1101,1.1095,1.1078,1.1067,1.1064,1.1056,1.1037,1.1033,1.1049,1.1017,1.1013,1.0994,1.0988,1.0994,1.0992,1.0943,1.0943,1.0942,1.0949,0,0,0,0,0,0,1.1134,1.1127,1.1121,1.1101,1.1094,1.1067,1.1067,1.1063,1.1053,1.1053,1.1031,1.1028,1.1017,1.0997,1.0992,1.0986,1.0991,1.0944,1.0943,1.0942,1.0949,1.0949,1.0948,0,0,0,0,0,1.1136,1.1124,1.1121,1.1116,1.1086,1.1067,1.1063,1.1052,1.1053,1.1047,1.1034,1.1029,1.099,1.0995,1.0989,1.0983,1.0944,1.0943,1.0943,1.0949,1.0949,1.0948,0,0,0,0,0,0,1.1142,1.1121,1.1117,1.1099,1.1085,1.1065,1.1057,1.1052,1.1037,1.1036,1.1022,1.1018,1.1,1.0989,1.0995,1.0966,1.0967,1.0965,1.0973,1.0973,1.0972,1.0975,1.0989,0,0,0,0,0,1.1142,1.1128,1.111,1.1095,1.1089,1.1074,1.1065,1.1058,1.1043,1.1036,1.1023,1.1008,1.0992,1.0982,1.0966,1.0948,1.0943,1.0941,1.094,1.094,1.0938,1.0928,1.0927,1.094,1.094,1.094,0,0,1.114,1.1127,1.1119,1.1097,1.1085,1.1071,1.1069,1.1054,1.1044,1.1034,1.1015,1.1005,1.0987,1.0969,1.096,1.0959,1.0934,1.0939,1.0939,1.0938,1.0928,1.0926,1.0925,1.094,1.094,1.094,0,0,1.113,1.1119,1.1105,1.1094,1.1077,1.1068,1.1065,1.1046,1.1039,1.1021,1.1013,1.1001,1.0974,1.0962,1.0952,1.094,1.0934,1.0935,1.0933,1.0923,1.0922,1.0921,1.0917,1.0915,1.0934,1.0934,1.0934,0,1.1129,1.1109,1.1099,1.1085,1.1075,1.1067,1.1054,1.1043,1.1022,1.1015,1.1016,1.0983,1.0971,1.0949,1.0946,1.0939,1.0935,1.0937,1.0923,1.0922,1.0921,1.0917,1.0915,1.0934,1.0934,1.0934,1.0934,0,1.1109,1.1096,1.1087,1.1068,1.1057,1.1044,1.1031,1.1022,1.1016,1.1007,1.0988,1.0973,1.0955,1.095,1.0943,1.0928,1.0928,1.0926,1.0926,1.092,1.0916,1.0914,1.0934,1.0934,1.0934,1.0934,0,0,1.1101,1.1078,1.1075,1.1066,1.1048,1.1037,1.1023,1.1006,1.0999,1.0985,1.0972,1.0951,1.095,1.0939,1.0931,1.0923,1.0914,1.0922,1.0921,1.0921,1.0897,1.0898,1.0896,1.0911,1.0911,1.091,1.0898,0,1.1088,1.1064,1.1055,1.1035,1.1022,1.1015,1.1003,1.099,1.0982,1.0969,1.0959,1.0944,1.0943,1.0937,1.0929,1.0917,1.0909,1.0918,1.0899,1.0899,1.0903,1.0894,1.0895,1.0884,1.0896,1.0896,1.0896,0,1.1069,1.1056,1.1035,1.102,1.1014,1.1003,1.0988,1.0976,1.0962,1.0956,1.0945,1.0939,1.0924,1.0926,1.0906,1.0912,1.0904,1.0898,1.0897,1.0894,1.0896,1.089,1.088,1.0878,1.0893,1.0893,1.0893,0,1.1065,1.1042,1.1027,1.102,1.1001,1.0994,1.0986,1.0972,1.0963,1.095,1.0944,1.0929,1.092,1.0908,1.0898,1.09,1.0879,1.088,1.0873,1.0873,1.0868,1.0868,1.0856,1.0864,1.0864,1.0864,1.0864,0,1.1051,1.1038,1.1025,1.1015,1.1001,1.0992,1.0978,1.0969,1.0957,1.0946,1.0939,1.0928,1.0915,1.0903,1.0895,1.0879,1.0875,1.087,1.0868,1.087,1.0871,1.0864,1.0864,1.0863,1.0863,1.0864,1.0864,0,1.1043,1.1034,1.1017,1.1001,1.0997,1.0987,1.0974,1.0964,1.0956,1.0942,1.0938,1.0924,1.091,1.0899,1.0879,1.0874,1.0857,1.0855,1.0862,1.0861,1.0855,1.0856,1.0837,1.0834,1.0845,1.0845,1.0845,0,1.1034,1.1025,1.1009,1.1001,1.0994,1.0981,1.0972,1.0963,1.0954,1.0938,1.0931,1.0916,1.0903,1.088,1.0869,1.0854,1.0851,1.0846,1.0849,1.0852,1.0851,1.0851,1.085,1.0845,1.0845,1.0845,1.0845,0,1.102,1.1017,1.1005,1.0991,1.0982,1.097,1.0959,1.0953,1.0942,1.0932,1.0918,1.0908,1.089,1.0875,1.0859,1.0851,1.0846,1.0845,1.0842,1.0844,1.0849,1.0846,1.0861,1.0845,1.0845,1.0845,1.0845,1.0845,1.1011,1.1003,1.0991,1.0978,1.0969,1.0959,1.095,1.0941,1.0929,1.0914,1.0909,1.0894,1.0881,1.086,1.0852,1.084,1.0839,1.0836,1.0835,1.0834,1.0834,1.0851,1.0837,1.0837,1.0837,1.0837,1.0837,0,1.0997,1.0989,1.0977,1.0963,1.0953,1.0951,1.0939,1.093,1.0918,1.0906,1.0895,1.0879,1.0865,1.0853,1.0839,1.0832,1.0829,1.0828,1.0828,1.0827,1.0835,1.0839,1.0831,1.0831,1.0831,1.0831,1.0831,1.0831,1.0988,1.0973,1.0968,1.095,1.0942,1.0928,1.0921,1.0912,1.0904,1.0886,1.0875,1.0868,1.0857,1.0842,1.0829,1.0826,1.0821,1.0821,1.0817,1.0825,1.0826,1.0826,1.083,1.082,1.082,1.0809,1.0809,1.0809]},{"header":{"parameterUnit":"m.s-1","parameterCategory":1,"la1":30.2991,"la2":30.254,"lo1":-89.0895,"lo2":-89.0444,"dy":0.0017,"dx":0.0017,"nx":28,"ny":28,"refTime":"2023-10-30T03:00:00:Z","depth":0,"parameterNumber":3,"parameterNumberName":"V-component_of_WINDS"},"data":[0,0,0,0,0,0,0,0,0,0,0,0,0,0,0,0,0,0,0,0,0,0,0,0,0,0,0,0,0,0,0,0,0,0,0,0,0,0,0,0,0,0,0,0,0,0,0,0,0,0,0,0,0,0,0,0,0,0,-8.255,-8.2552,0,-8.2712,-8.2714,-8.2716,-8.264,-8.2636,-8.2632,-8.2628,-8.2787,-8.2795,-8.2802,0,0,0,0,0,0,0,0,0,0,0,0,0,-8.2169,-8.2177,-8.255,-8.2552,-8.2554,-8.2712,-8.2714,-8.2716,-8.2641,-8.2636,-8.2631,-8.2626,-8.2784,-8.2794,-8.2803,0,0,0,0,0,0,0,0,0,0,0,0,0,-8.2333,-8.2179,-8.255,-8.2536,-8.2536,-8.2712,-8.2714,-8.2717,-8.2642,-8.2636,-8.2629,-8.2624,-8.2781,-8.2793,-8.2805,-8.3001,0,0,-8.2841,-8.2847,0,0,0,0,0,0,0,0,-8.2324,-8.2347,-8.2536,-8.2537,-8.2538,-8.265,-8.2638,-8.2812,-8.2643,-8.2601,-8.2628,-8.2621,-8.2746,-8.276,-8.2804,-8.3009,-8.3015,-8.2842,-8.285,-8.2855,-8.2858,0,0,0,0,0,0,0,-8.2313,-8.234,-8.2614,-8.2539,-8.254,-8.2519,-8.2536,-8.2671,-8.2706,-8.2605,-8.2599,-8.262,-8.2745,-8.2792,-8.2807,-8.3018,-8.2842,-8.2853,-8.286,-8.2865,-8.3392,-8.3399,0,0,0,0,0,0,-8.2303,-8.2331,-8.2609,-8.2619,-8.2414,-8.2531,-8.255,-8.262,-8.2704,-8.2711,-8.2625,-8.2616,-8.2775,-8.2793,-8.2812,-8.3049,-8.2855,-8.2866,-8.2873,-8.3386,-8.3394,-8.3401,0,0,0,0,0,0,-8.2295,-8.2328,-8.2602,-8.2474,-8.2507,-8.2544,-8.2624,-8.2626,-8.2674,-8.272,-8.2725,-8.2668,-8.2771,-8.2795,-8.2955,-8.3053,-8.2871,-8.2882,-8.3378,-8.3388,-8.3398,-8.3523,0,0,0,0,0,0,-8.2284,-8.2326,-8.2402,-8.2476,-8.2514,-8.2745,-8.263,-8.2634,-8.2696,-8.2685,-8.2761,-8.2767,-8.2768,-8.2938,-8.2967,-8.3066,-8.2892,-8.3369,-8.3382,-8.3394,-8.351,-8.3536,-8.3558,0,0,0,0,0,-8.2271,-8.2429,-8.2407,-8.2441,-8.2611,-8.2751,-8.2773,-8.2772,-8.2704,-8.278,-8.281,-8.2765,-8.3038,-8.2955,-8.2988,-8.3092,-8.3363,-8.3379,-8.3393,-8.3499,-8.3531,-8.3558,0,0,0,0,0,0,-8.2363,-8.2439,-8.2414,-8.2602,-8.2671,-8.2738,-8.2834,-8.2805,-8.2893,-8.2879,-8.2872,-8.289,-8.3056,-8.3089,-8.2996,-8.3286,-8.3189,-8.3212,-8.3259,-8.3289,-8.3313,-8.3301,-8.2902,0,0,0,0,0,-8.2406,-8.2516,-8.2575,-8.2734,-8.2771,-8.2797,-8.2858,-8.2852,-8.2922,-8.295,-8.2991,-8.3059,-8.316,-8.3226,-8.3321,-8.3514,-8.353,-8.3602,-8.3626,-8.3645,-8.3665,-8.377,-8.3803,-8.3451,-8.3451,-8.3451,0,0,-8.2494,-8.2549,-8.2618,-8.2754,-8.2807,-8.2919,-8.2822,-8.2944,-8.3026,-8.2967,-8.3122,-8.3155,-8.323,-8.3408,-8.3488,-8.3441,-8.3766,-8.3665,-8.368,-8.3689,-8.3789,-8.3822,-8.3852,-8.3462,-8.346,-8.3458,0,0,-8.2713,-8.2766,-8.2905,-8.2961,-8.3043,-8.306,-8.3093,-8.3166,-8.3186,-8.3342,-8.33,-8.3397,-8.3571,-8.3626,-8.3677,-8.3919,-8.3881,-8.395,-8.4075,-8.4178,-8.4205,-8.423,-8.4316,-8.4347,-8.3969,-8.3969,-8.397,0,-8.2812,-8.2981,-8.298,-8.3107,-8.3167,-8.3122,-8.3262,-8.3315,-8.3424,-8.3466,-8.3412,-8.363,-8.3677,-8.3868,-8.3927,-8.397,-8.4007,-8.3941,-8.4202,-8.4226,-8.4249,-8.4331,-8.4364,-8.3977,-8.3976,-8.3976,-8.3975,0,-8.3099,-8.3217,-8.3319,-8.3428,-8.35,-8.3633,-8.365,-8.3723,-8.3711,-8.3733,-8.3892,-8.3947,-8.4053,-8.4098,-8.4086,-8.4287,-8.4255,-8.4202,-8.4104,-8.4291,-8.4368,-8.4399,-8.3989,-8.3986,-8.3983,-8.3981,0,0,-8.338,-8.3488,-8.3525,-8.3575,-8.3663,-8.3753,-8.3883,-8.399,-8.4052,-8.4128,-8.4236,-8.4386,-8.4338,-8.4396,-8.4389,-8.4479,-8.4667,-8.4414,-8.4416,-8.446,-8.4892,-8.4932,-8.4969,-8.4643,-8.4649,-8.4654,-8.4886,0,-8.3605,-8.3836,-8.3839,-8.4051,-8.4159,-8.4118,-8.4231,-8.4297,-8.4321,-8.4415,-8.444,-8.4546,-8.4474,-8.4509,-8.4597,-8.4626,-8.4754,-8.4609,-8.4742,-8.4747,-8.4725,-8.5009,-8.5052,-8.5269,-8.4916,-8.4921,-8.4925,0,-8.3898,-8.3988,-8.4211,-8.4285,-8.433,-8.4432,-8.4531,-8.4622,-8.4694,-8.4705,-8.4772,-8.4752,-8.4883,-8.4782,-8.4962,-8.4863,-8.4917,-8.494,-8.4948,-8.4961,-8.4847,-8.5029,-8.5338,-8.537,-8.4972,-8.4969,-8.4965,0,-8.4082,-8.4257,-8.4413,-8.4457,-8.4546,-8.4619,-8.4659,-8.4726,-8.479,-8.4875,-8.4917,-8.5015,-8.5069,-8.5144,-8.5151,-8.5077,-8.5333,-8.5232,-8.5344,-8.5344,-8.54,-8.5396,-8.5722,-8.5435,-8.5434,-8.5434,-8.5433,0,-8.4333,-8.4471,-8.4497,-8.4593,-8.4747,-8.4748,-8.4899,-8.4933,-8.4993,-8.5094,-8.5063,-8.5158,-8.5161,-8.5258,-8.5264,-8.5412,-8.5436,-8.5447,-8.5447,-8.5451,-8.5449,-8.5486,-8.5471,-8.5442,-8.5441,-8.5439,-8.5437,0,-8.4563,-8.4586,-8.4754,-8.4826,-8.4847,-8.4957,-8.5018,-8.5109,-8.513,-8.5258,-8.5288,-8.5321,-8.5433,-8.5448,-8.5578,-8.5582,-8.576,-8.5744,-8.5737,-8.5735,-8.5846,-8.5836,-8.6207,-8.6256,-8.5937,-8.594,-8.5943,0,-8.4722,-8.4828,-8.4912,-8.4979,-8.5024,-8.5131,-8.5198,-8.5203,-8.5273,-8.5364,-8.5444,-8.5554,-8.5642,-8.5823,-8.5857,-8.5956,-8.5942,-8.6065,-8.5957,-8.5957,-8.5944,-8.5938,-8.5949,-8.6086,-8.609,-8.6092,-8.6095,0,-8.5002,-8.5009,-8.5107,-8.521,-8.5291,-8.5371,-8.5446,-8.5502,-8.5517,-8.5596,-8.5712,-8.5781,-8.5915,-8.6024,-8.6123,-8.6161,-8.6131,-8.6129,-8.616,-8.6165,-8.6156,-8.6163,-8.5795,-8.612,-8.6118,-8.6116,-8.6114,-8.6113,-8.5202,-8.5294,-8.5369,-8.5479,-8.5537,-8.5609,-8.5699,-8.5733,-8.583,-8.5942,-8.5939,-8.6066,-8.6136,-8.6265,-8.6311,-8.641,-8.6369,-8.6414,-8.6426,-8.6437,-8.6448,-8.6141,-8.6427,-8.6427,-8.6426,-8.6425,-8.6425,0,-8.548,-8.5527,-8.5629,-8.5737,-8.5824,-8.579,-8.5872,-8.5946,-8.606,-8.6129,-8.6217,-8.635,-8.6456,-8.6499,-8.6603,-8.6673,-8.6662,-8.67,-8.6695,-8.6704,-8.6479,-8.6442,-8.6708,-8.6708,-8.6708,-8.6707,-8.6707,-8.6707,-8.5636,-8.5791,-8.5807,-8.599,-8.6034,-8.6162,-8.6212,-8.6277,-8.6332,-8.6484,-8.6573,-8.6601,-8.666,-8.6767,-8.6862,-8.6872,-8.6911,-8.6956,-8.696,-8.6748,-8.672,-8.6693,-8.6658,-8.6965,-8.6965,-8.7177,-8.7179,-8.7181]}]]